{"data":{"norad_id":63281,"intl_designator":"2025-053S","name":"STARLINK-33665","alt_names":[],"object_type":"PAYLOAD","status":"ACTIVE","operator":null,"country":"US","launch_date":"2025-03-15","launch_site_code":"AFETR","launch_vehicle":null,"mission":null,"orbit_class":"UNKNOWN","rcs_meters":null,"size_class":null,"mass_kg":null,"dimensions":null,"purposes":["comms"],"wikipedia_slug":null,"has_3d_model":false,"image_url":null,"decayed_at":null,"tle_current":{"epoch":"2026-05-25T02:08:30.241824Z","epoch_age_seconds":63292,"freshness":"FRESH","line1":"1 63281U 25053S   26145.08923891  .00012273  00000+0  45460-3 0  9999","line2":"2 63281  42.9995 169.7976 0001190 268.5630  91.5086 15.27593390 67888","mean_motion":15.2759339,"eccentricity":0.000119,"inclination_deg":42.9995,"raan_deg":169.7976,"arg_perigee_deg":268.563,"mean_anomaly_deg":91.5086,"bstar":0.0004546,"rev_number":6788,"period_min":94.265922425862,"perigee_km":482.19252548128,"apogee_km":483.82547822972,"semimajor_km":6861.1460018555,"source":"CELESTRAK","updated_at":"2026-05-25T13:38:19.927600Z"}}}